Home   Weather   Oviedo   Past weeks

Flag for Spain Past Weather in Oviedo, Spain — Yesterday and Last 2 Weeks

Now
62 °F

Fog.


Feels Like: 62 °F
Forecast: 53 / 67 °F
Wind: 1 mph from Northwest

Location: Oviedo

Current Time: Sep 30, 2016 at 8:48:48 AM

Latest Report: Sep 30, 2016 at 8:00 AM


Visibility: 0 mi

Pressure: 30.02 "Hg

Humidity: 98%

Dew Point: 62 °F

Location of OviedoLocation

Past Weather in Oviedo — Graph

°F

Oviedo Temperature Yesterday

Maximum temperature yesterday: 72 °F (at 4:00 PM)
Minimum temperature yesterday: 59 °F (at 8:00 AM)
Average temperature yesterday: 65 °F

High & Low Weather Summary for the Past Weeks

 TemperatureHumidityPressure
High75 °F (Sep 24, 4:00 PM)100% (Sep 15, 8:00 PM)30.42 "Hg (Sep 15, 8:00 PM)
Low53 °F (Sep 18, 7:00 AM)57% (Sep 18, 2:00 PM)29.79 "Hg (Sep 15, 7:00 AM)
Average62 °F86%30.19 "Hg
* Reported Sep 15 7:00 AM — Sep 30 7:00 AM, Oviedo, Weather by CustomWeather, © 2016

Note: Actual official high and low records may vary slightly from our data, if they occured in-between our weather recording intervals... More about our weather records

Advertising

Oviedo Weather History for the Previous 24 Hours

Scroll right to see more
 ConditionsComfort  
Time TempWeatherWind HumidityBarometerVisibility
7:00 AM
Fri, Sep 30
62 °FMild.2 mph98%30.02 "Hg2 mi
6:00 AM62 °FMild.1 mph98%30.03 "Hg1 mi
5:00 AM63 °FFog.1 mph98%30.04 "Hg1 mi
4:00 AM63 °FMild.2 mph97%30.06 "Hg2 mi
3:00 AM63 °FMild.2 mph97%30.09 "Hg2 mi
2:00 AM63 °FFog.1 mph98%30.10 "Hg1 mi
1:00 AM63 °FMild.3 mph98%30.12 "Hg1 mi
12:00 AM63 °FMild.3 mph97%30.14 "Hg1 mi
11:00 PM
Thu, Sep 29
64 °FFog.2 mph93%30.15 "Hg1 mi
10:00 PM64 °FMild.5 mph90%30.16 "HgN/A
9:00 PM64 °FMild.2 mph90%30.16 "Hg4 mi
8:00 PM65 °FOvercast.5 mph88%30.15 "Hg6 mi
7:00 PM68 °FMild.6 mph83%30.14 "Hg6 mi
6:00 PM71 °FMild.6 mph75%30.14 "Hg8 mi
5:00 PM71 °FPassing clouds.6 mph75%30.15 "Hg12 mi
4:00 PM72 °FMild.7 mph73%30.16 "Hg9 mi
3:00 PM72 °FMild.5 mph75%30.18 "Hg8 mi
2:00 PM71 °FScattered clouds.5 mph76%30.20 "Hg12 mi
1:00 PM69 °FMild.5 mph80%30.22 "Hg6 mi
9:00 AM59 °FCool.2 mph100%30.23 "Hg4 mi
8:00 AM59 °FPassing clouds.2 mph100%30.22 "Hg6 mi
Weather by CustomWeather, © 2016

See weather overviewHow to use our weather pages